• Join FlightAware (Why Join?)
  • Login
  • US Flag 
09:05PM EST


 

Airport Tracker/Info


-or-


 

Live Flight TrackerFlight Track Log ✈ RPA3321 ✈ 13-Jun-2013 ✈ KALB - KDCA

Flight Track Log - Related Links

Times and Time Zones

All times are in EDT time to prevent confusion due to time zone crossing. See the RPA3321 flight status page for this flight to view local times or setup timezone preferences in your user account.

Time Position Orientation Groundspeed Altitude Reporting Facility
EDT Latitude Longitude Course Direction KTS MPH feet Rate Location/Type
05:40AM 42.7631 -73.8089 341° North 142 163 1,100  Level Boston Center
05:41AM 42.8128 -73.8325 341° North 217 250 3,300 2,298 Climbing Boston Center
05:42AM 42.8311 -73.8642 308° West 241 277 4,700 2,839 Climbing Boston Center
05:43AM 42.8758 -73.9531 304° West 253 291 7,700 3,650 Climbing Boston Center
05:44AM 42.8517 -74.0517 252° West 247 284 12,000 3,700 Climbing Boston Center
05:45AM 42.7961 -74.1464 231° Southwest 264 304 15,100 3,050 Climbing Boston Center
05:46AM 42.7092 -74.1100 163° South 307 353 18,100 2,550 Climbing Boston Center
05:47AM 42.6078 -74.0594 160° South 345 397 20,200 2,300 Climbing Boston Center
05:48AM 42.4939 -73.9972 158° South 380 437 22,700 2,100 Climbing Boston Center
05:49AM 42.3842 -73.9356 157° South 411 473 24,400 1,750 Climbing Boston Center
05:50AM 42.2683 -73.8736 158° South 435 501 26,200 1,850 Climbing Boston Center
05:51AM 42.1544 -73.8122 158° South 440 506 28,100 1,850 Climbing Boston Center
05:52AM 42.0428 -73.7511 158° South 440 506 29,900 1,376 Climbing Boston Center
05:54AM 41.8403 -73.7503 180° South 402 463 32,000 741 Climbing New York Center
05:55AM 41.7450 -73.8100 205° Southwest 376 433 32,000  Level New York Center
05:56AM 41.6519 -73.8694 206° Southwest 376 433 32,000  Level New York Center
05:57AM 41.5631 -73.9264 206° Southwest 369 425 32,000  Level New York Center
05:58AM 41.4697 -73.9856 205° Southwest 369 425 32,000  Level New York Center
05:59AM 41.3767 -74.0447 206° Southwest 369 425 32,000  Level New York Center
06:00AM 41.2811 -74.1033 205° Southwest 369 425 32,000  Level New York Center
06:01AM 41.1858 -74.1622 205° Southwest 374 430 32,000 -100 Level New York Center
06:02AM 41.0883 -74.2178 203° Southwest 374 430 31,800 -1,033 Descending New York Center
06:03AM 40.9931 -74.2761 205° Southwest 379 436 29,900 -1,983 Descending New York Center
06:04AM 40.8997 -74.3317 204° Southwest 379 436 27,900 -1,983 Descending New York Center
06:05AM 40.8242 -74.4183 221° Southwest 363 418 26,000 -934 Descending New York Center
06:06AM 40.7544 -74.5131 226° Southwest 368 423 26,000  Level New York Center
06:07AM 40.6867 -74.6106 228° Southwest 368 423 26,000  Level New York Center
06:08AM 40.6189 -74.7081 228° Southwest 368 423 26,000  Level New York Center
06:09AM 40.5511 -74.8025 227° Southwest 362 417 26,000  Level New York Center
06:10AM 40.4833 -74.8939 226° Southwest 357 411 26,000  Level New York Center
06:11AM 40.4153 -74.9908 227° Southwest 357 411 26,000  Level New York Center
06:12AM 40.3472 -75.0847 226° Southwest 357 411 26,000  Level New York Center
06:13AM 40.2792 -75.1783 226° Southwest 357 411 26,000  Level New York Center
06:14AM 40.2131 -75.2747 228° Southwest 357 411 26,000  Level New York Center
06:15AM 40.1428 -75.3706 226° Southwest 362 417 26,000  Level New York Center
06:16AM 40.0744 -75.4639 226° Southwest 362 417 26,000 -780 Level New York Center
06:17AM 40.0061 -75.5567 226° Southwest 357 411 24,400 -1,686 Descending New York Center
06:18AM 39.9397 -75.6469 226° Southwest 357 411 22,600 -1,200 Descending New York Center
06:19AM 39.8836 -75.7406 232° Southwest 357 411 22,000 -305 Descending New York Center
06:20AM 39.8275 -75.8339 232° Southwest 338 389 22,000 -754 Level New York Center
06:21AM 39.7167 -76.0000 229° Southwest 330 380 19,900 -1,341 Descending Potomac TRACON
06:22AM 39.6667 -76.0833 232° Southwest 318 366 18,200 -1,650 Descending Potomac TRACON
06:23AM 39.6000 -76.1667 224° Southwest 304 350 16,600 -1,600 Descending Potomac TRACON
06:24AM 39.5500 -76.2500 232° Southwest 295 339 15,000 -1,600 Descending Potomac TRACON
06:25AM 39.5000 -76.3333 232° Southwest 295 339 13,400 -1,526 Descending Potomac TRACON
06:26AM 39.4500 -76.4000 226° Southwest 290 334 12,100 -778 Descending Potomac TRACON
06:27AM 39.4000 -76.4667 226° Southwest 298 343 12,000 -53 Descending Potomac TRACON
06:28AM 39.3333 -76.5333 218° Southwest 295 339 12,000 -50 Level Potomac TRACON
06:29AM 39.2667 -76.5833 210° Southwest 298 343 11,900 -789 Descending Potomac TRACON
06:30AM 39.2000 -76.6333 210° Southwest 288 331 10,500 -1,000 Descending Potomac TRACON
06:31AM 39.1333 -76.7000 218° Southwest 263 303 10,000 -248 Descending Potomac TRACON
06:32AM 39.0833 -76.7667 226° Southwest 264 304 10,000 -750 Level Potomac TRACON
06:33AM 39.0333 -76.8333 226° Southwest 260 299 8,500 -1,752 Descending Potomac TRACON
06:34AM 38.9833 -76.8833 218° Southwest 258 297 6,700 -1,611 Descending Potomac TRACON
06:35AM 38.9667 -76.9500 252° West 256 295 5,600 -1,761 Descending Potomac TRACON
06:36AM 38.9833 -77.0333 284° West 260 299 3,500 -1,357 Descending Potomac TRACON
06:37AM 38.9833 -77.1167 270° West 233 268 3,000 -526 Descending Potomac TRACON
06:38AM 38.9333 -77.1167 180° South 206 237 2,500 -263 Descending Potomac TRACON
06:39AM 38.9000 -77.0667 131° Southeast 219 252 2,500 250 Level Potomac TRACON
06:40AM 38.8500 -77.1000 207° Southwest 209 241 3,000 263 Climbing Potomac TRACON
06:41AM 38.8333 -77.1667 252° West 208 239 3,000 550 Level Potomac TRACON
06:42AM 38.8667 -77.2333 303° West 232 267 4,100 1,000 Climbing Potomac TRACON
06:43AM 38.9167 -77.2833 322° Northwest 225 259 5,000 474 Climbing Potomac TRACON
06:44AM 38.9667 -77.3333 322° Northwest 231 266 5,000 -50 Level Potomac TRACON
06:45AM 39.0000 -77.2833 49° Northeast 222 255 4,900 -650 Descending Potomac TRACON
06:46AM 39.0000 -77.2167 90° East 196 226 3,700 -1,000 Descending Potomac TRACON
06:47AM 38.9667 -77.1667 131° Southeast 187 215 2,900 -850 Descending Potomac TRACON
06:48AM 38.9333 -77.1167 131° Southeast 179 206 2,000 -950 Descending Potomac TRACON
06:49AM 38.9000 -77.0833 142° Southeast 140 161 1,000 -750 Descending Potomac TRACON
06:50AM 38.8833 -77.0500 123° Southeast 134 154 500 -500 Descending Potomac TRACON